Terug naar catalogus

STARLINK-31547

ActiefCommunicatieVLEO
NORAD 59364·PAYLOAD·🇺🇸 United States

Gelanceerd Mar 31, 2024 vanaf Cape Canaveral Space Force Station

Loading…

Volgende Passages (komende 24 uur)

TLE

VersSource: CelesTrak SupGP

Epoch: Sep 14, 2026, 20:50 UTC

1 59364C 24060S   26257.86854167  .00023441  00000+0  84935-3 0  2578
2 59364  43.0006 260.1091 0001392 263.7629 202.9831 15.27554282    18

Volg STARLINK-31547 in realtime met AllMySat

Download on the App Store